THOR ABLESTAR DEB, 355

Orbit data source: Space-Track

THOR ABLESTAR DEB, 355 is space debris in LEO originally from a launch on Thu, 29 Jun 1961 UTC launched from the Air Force Eastern Test Range (AFETR). Debris objects in space refer to the collection of defunct objects orbiting the Earth. Examples of debris include non-operational satellites, rocket bodies, and fragments generated from explosions, collisions, or faulty payload assembly.

Loading next visibility...
Identifier
355, 1961-015DV
Orbit
LEO
Country
Flag of USUS
Related business
Manufacturer
Unknown
Mission
Spacecraft
Bus & Motor
Unknown
Mass
Unknown
Launch date (UTC)
1961-06-29 (64 years ago)
Launch vehicle
Unknown
Launch site
Air Force Eastern Test Range (AFETR)
Object type
Payload
Rocket body
Debris
Shape & HBR
Unknown shape, 0.1 m
Radar Cross Section
Medium (>0.1 m² and <1 m²)

Expand to show TLE details & history
Last TLE update: 18 hours ago

TLE from 18 hours ago
0 THOR ABLESTAR DEB
1 00355U 61015DV  25309.51594323  .00000535  00000-0  10258-2 0  9998
2 00355  67.2238 136.0402 0239764   3.9841  26.1754 13.33872716119192
Epoch: 2025-11-05T12:22Z
TLE epoch observation values (Epoch: 2025-11-05T12:22:57.495Z)
Latitude
28.7752°
Longitude
-81.42596°
Altitude
974.159 km
Speed
7.446 km/s
True Right ascension
09h 57m 12s
True Declination
28° 38' 05"
Sunlit
Object was in daylight at epoch
Visualization orbit readout
Latitude
Unknown
Longitude
Unknown
Altitude
Unknown
Speed
Unknown
Apparent Right ascension
Unknown
Apparent Declination
Unknown
Sunlit
N/A
Visualization observer readout
Local Sidereal Time
02:24:17
Azimuth
Unknown
Elevation
Unknown
Doppler factor
Unknown
Orbital elements
Apogee altitude
1,310.613 km
Perigee altitude
950.549 km
Semi-major axis
7,508.718 km
Eccentricity
0.02398
Inclination
67.2238°
RAAN
136.0402°
Arg. of periapsis
3.9841°
True anomaly
27.42074°
Mean anomaly
26.1754°
Eccentric anomaly
26.79468°
Mean motion
3.33576 °/min
Orbital period
107.92 mins
BSTAR
0.0010258
Loading maneuver chart data...
Computing Atmospheric mass density...
Loading historical data...
Loading historical data...
Loading historical data...
Loading historical data...
Loading historical data...
Loading historical data...
Loading historical data...

Documentation

Showing up to 5 results
|